Location: Unspecified
(0.0000°N, 0.0000°E)
Time: 17:47:46
(UTC+00:00)

STARLINK 1035 - Pass Details

Date: 16 January 2020
Orbit: 397 x 400 km, 53.0° (Epoch: 17 January)

Event Time Altitude Azimuth Distance (km) Brightness Sun altitude
Rises 05:35:58 0° 203° (SSW) 2,299 6.8 -7.8°
Reaches altitude 10° 05:38:07 10° 196° (SSW) 1,438 5.8 -7.3°
Maximum altitude 05:41:10 40° 124° (SE) 599 4.6 -6.6°
Drops below altitude 10° 05:44:12 10° 53° (NE) 1,431 6.2 -5.9°
Sets 05:46:20 0° 45° (NE) 2,284 7.1 -5.4°
